SR9SMR Weather Reports


time (UTC)temp
F
wind
direction
speed
knots
gust
knots
rain 1hr
in
rain 24hr
in
rain mn
in
humidity
%
barometer
mb
20260506205702 56 212 18.2 33.0 0.00 0.00 0.00 100 890.7
20260506205550 56 210 18.2 32.2 0.00 0.00 0.00 100 891.1
20260506205501 56 210 18.2 32.2 0.00 0.00 0.00 100 893.1
20260506205349 56 211 20.0 35.6 0.00 0.00 0.00 100 897.7
20260506205259 56 213 20.9 35.6 0.00 0.00 0.00 100 891.0
20260506205148 56 214 20.9 35.6 0.00 0.00 0.00 100 890.8
20260506205048 56 211 20.9 38.2 0.00 0.00 0.00 100 891.4
20260506204947 56 211 20.0 38.2 0.00 0.00 0.00 100 895.5
20260506204857 56 211 19.1 38.2 0.00 0.00 0.00 100 895.5
20260506204746 56 214 18.2 38.2 0.00 0.00 0.00 100 897.4
20260506204656 56 212 18.2 33.0 0.00 0.00 0.00 100 897.4
20260506204545 56 212 18.2 33.0 0.00 0.00 0.00 100 891.8
20260506204454 56 216 20.0 33.0 0.00 0.00 0.00 100 892.9
20260506204344 56 216 20.0 31.3 0.00 0.00 0.00 100 892.3
20260506204254 56 222 20.0 31.3 0.00 0.00 0.00 100 892.3
20260506204043 56 220 18.2 33.0 0.00 0.00 0.00 100 891.4
20260506203852 56 212 18.2 33.0 0.00 0.00 0.00 100 896.5
20260506203650 56 214 18.2 33.0 0.00 0.00 0.00 100 891.9
20260506203541 56 214 19.1 37.4 0.00 0.00 0.00 100 895.2
20260506203450 56 214 19.1 37.4 0.00 0.00 0.00 100 895.2
20260506203032 57 217 19.1 41.7 0.00 0.00 0.00 100 893.8
20260506202524 57 212 19.1 33.0 0.00 0.00 0.00 100 891.8
20260506202013 57 213 20.0 36.5 0.00 0.00 0.00 100 891.3
20260506201510 57 218 19.1 33.0 0.00 0.00 0.00 100 891.4
20260506201007 57 216 20.0 34.8 0.00 0.00 0.00 100 893.0
20260506200504 57 214 22.6 36.5 0.00 0.00 0.00 100 891.7
20260506200002 57 220 20.0 34.8 0.00 0.00 0.00 100 892.6
20260506195500 57 213 19.1 31.3 0.00 0.00 0.00 100 894.8
20260506194956 57 212 19.1 33.9 0.00 0.00 0.00 100 891.7
20260506194454 58 220 21.7 33.0 0.00 0.00 0.00 100 892.4
20260506193951 57 217 19.1 37.4 0.00 0.00 0.00 100 891.7
20260506193454 57 221 19.1 31.3 0.00 0.00 0.00 100 892.5
20260506193449 58 221 19.1 31.3 0.00 0.00 0.00 100 894.0
20260506192947 57 214 17.4 27.8 0.00 0.00 0.00 100 892.4
20260506192526 57 211 15.6 33.9 0.00 0.00 0.00 100 892.6
20260506192444 57 211 15.6 33.9 0.00 0.00 0.00 100 892.6
20260506192248 57 208 12.2 20.0 0.00 0.00 0.00 100 892.3
20260506191942 57 199 13.9 26.9 0.00 0.00 0.00 100 891.9
20260506191440 58 206 15.6 26.1 0.00 0.00 0.00 100 892.7
20260506190937 58 203 13.9 22.6 0.00 0.00 0.00 100 893.3
20260506190435 58 202 12.2 21.7 0.00 0.00 0.00 100 892.9
20260506185933 58 199 14.8 26.9 0.00 0.00 0.00 100 894.1
20260506185432 58 204 13.9 21.7 0.00 0.00 0.00 100 892.9
20260506184929 58 206 13.9 24.3 0.00 0.00 0.00 100 893.6
20260506184426 58 202 12.2 21.7 0.00 0.00 0.00 100 893.1
20260506183422 58 207 13.9 27.8 0.00 0.00 0.00 100 893.0
20260506182919 58 207 13.0 22.6 0.00 0.00 0.00 100 892.7
20260506182417 58 208 13.9 20.9 0.00 0.00 0.00 100 892.9
20260506181915 58 207 13.9 24.3 0.00 0.00 0.00 100 892.6
20260506181411 58 207 12.2 20.0 0.00 0.00 0.00 100 893.2
20260506181207 58 208 13.0 26.1 0.00 0.00 0.00 100 893.1
20260506181003 58 207 13.9 26.1 0.00 0.00 0.00 100 892.9
20260506180902 58 208 13.9 26.1 0.00 0.00 0.00 100 892.7
20260506180759 58 206 13.9 21.7 0.00 0.00 0.00 100 892.7
20260506180558 58 208 13.0 22.6 0.00 0.00 0.00 100 892.9
20260506180357 58 208 13.0 22.6 0.00 0.00 0.00 100 898.8
20260506180155 58 205 13.0 21.7 0.00 0.00 0.00 100 893.4
20260506175954 58 204 14.8 23.5 0.00 0.00 0.00 100 893.5
20260506175854 58 201 14.8 27.8 0.00 0.00 0.00 100 893.5
20260506175540 59 206 15.6 29.5 0.00 0.00 0.00 100 893.3
20260506175339 59 205 13.0 28.7 0.00 0.00 0.00 100 893.4
20260506175138 58 204 13.0 21.7 0.00 0.00 0.00 100 893.6
20260506174941 59 207 13.0 22.6 0.00 0.00 0.00 100 893.6
20260506174937 59 207 13.0 22.6 0.00 0.00 0.00 100 893.7
20260506174837 59 208 12.2 22.6 0.00 0.00 0.00 100 893.7
20260506174724 59 206 12.2 21.7 0.00 0.00 0.00 100 893.7
20260506174523 59 208 13.0 22.6 0.00 0.00 0.00 100 893.7
20260506174323 59 212 14.8 29.5 0.00 0.00 0.00 100 893.5
20260506174122 59 215 14.8 29.5 0.00 0.00 0.00 100 893.6
20260506173921 59 214 13.9 22.6 0.00 0.00 0.00 100 893.7
20260506173822 59 213 13.9 25.2 0.00 0.00 0.00 100 893.5
20260506173720 59 208 13.9 26.9 0.00 0.00 0.00 100 893.5
20260506173519 59 211 16.5 26.9 0.00 0.00 0.00 100 893.4
20260506173317 59 217 14.8 25.2 0.00 0.00 0.00 100 893.5
20260506173116 59 218 13.0 25.2 0.00 0.00 0.00 100 893.6
20260506172915 59 218 12.2 25.2 0.00 0.00 0.00 100 893.6
20260506172816 59 211 12.2 23.5 0.00 0.00 0.00 100 893.7
20260506172714 59 215 13.9 24.3 0.00 0.00 0.00 100 893.7
20260506172514 59 211 15.6 24.3 0.00 0.00 0.00 100 893.5
20260506172313 59 210 15.6 26.1 0.00 0.00 0.00 100 893.6
20260506172115 59 213 15.6 26.1 0.00 0.00 0.00 100 893.6
20260506172112 59 213 15.6 26.1 0.00 0.00 0.00 100 893.5
20260506171911 59 219 15.6 26.1 0.00 0.00 0.00 100 893.6
20260506171812 59 220 15.6 26.1 0.00 0.00 0.00 100 893.6
20260506171710 59 218 15.6 24.3 0.00 0.00 0.00 100 893.5
20260506171510 59 215 15.6 26.9 0.00 0.00 0.00 100 893.6
20260506171309 59 216 14.8 26.9 0.00 0.00 0.00 100 893.5
20260506171108 59 217 13.0 24.3 0.00 0.00 0.00 100 893.6
20260506170907 59 219 13.9 22.6 0.00 0.00 0.00 100 893.7
20260506170807 59 216 14.8 23.5 0.00 0.00 0.00 100 893.7
20260506170606 59 219 14.8 25.2 0.00 0.00 0.00 100 893.6
20260506170453 59 220 15.6 26.1 0.00 0.00 0.00 100 893.7
20260506170249 59 226 16.5 27.8 0.00 0.00 0.00 100 893.6
20260506170043 59 224 15.6 27.8 0.00 0.00 0.00 100 893.6
20260506165839 59 213 13.9 30.4 0.00 0.00 0.00 100 893.8
20260506165738 59 209 13.9 30.4 0.00 0.00 0.00 100 893.8
20260506165635 59 212 13.9 30.4 0.00 0.00 0.00 100 893.7
20260506165432 60 213 14.8 21.7 0.00 0.00 0.00 100 893.9
20260506165227 60 211 14.8 26.9 0.00 0.00 0.00 100 893.9
20260506165026 59 212 15.6 28.7 0.00 0.00 0.00 100 893.8
20260506164928 60 212 14.8 28.7 0.00 0.00 0.00 100 893.8
20260506164825 60 208 15.6 28.7 0.00 0.00 0.00 100 893.8
20260506164725 60 209 15.6 26.1 0.00 0.00 0.00 100 893.7
20260506164621 59 212 16.5 26.1 0.00 0.00 0.00 100 893.7
20260506164526 59 214 16.5 26.1 0.00 0.00 0.00 100 893.7
20260506164420 59 223 16.5 26.1 0.00 0.00 0.00 100 893.6
20260506164328 59 221 14.8 26.1 0.00 0.00 0.00 100 893.7
20260506164219 59 214 13.9 26.1 0.00 0.00 0.00 100 893.9
20260506164124 60 209 13.9 26.1 0.00 0.00 0.00 100 893.8
20260506164019 60 207 13.9 26.1 0.00 0.00 0.00 100 893.9
20260506163923 60 205 13.9 25.2 0.00 0.00 0.00 100 893.9
20260506163818 60 205 14.8 25.2 0.00 0.00 0.00 100 894.0
20260506163718 60 204 16.5 25.2 0.00 0.00 0.00 100 893.8
20260506163617 60 206 15.6 24.3 0.00 0.00 0.00 100 893.7
20260506163521 60 206 15.6 24.3 0.00 0.00 0.00 100 893.6
20260506163416 60 209 15.6 24.3 0.00 0.00 0.00 100 893.7
20260506163321 60 211 15.6 28.7 0.00 0.00 0.00 100 893.7
20260506163215 59 209 16.5 28.7 0.00 0.00 0.00 100 893.6
20260506163120 59 209 17.4 28.7 0.00 0.00 0.00 100 893.6
20260506163013 60 208 17.4 28.7 0.00 0.00 0.00 100 893.6
20260506162917 60 210 16.5 26.1 0.00 0.00 0.00 100 893.6
20260506162812 60 215 15.6 25.2 0.00 0.00 0.00 100 893.7
20260506162712 60 215 14.8 24.3 0.00 0.00 0.00 100 893.9
20260506162610 60 223 13.9 24.3 0.00 0.00 0.00 100 894.0
20260506162514 60 223 13.9 24.3 0.00 0.00 0.00 100 894.0
20260506162408 60 218 13.9 24.3 0.00 0.00 0.00 100 894.0
20260506162313 60 222 15.6 26.9 0.00 0.00 0.00 100 893.9
20260506162207 60 218 15.6 26.9 0.00 0.00 0.00 100 893.9
20260506162112 60 219 16.5 26.9 0.00 0.00 0.00 100 893.9
20260506162007 60 223 16.5 26.9 0.00 0.00 0.00 100 893.8
20260506161912 60 223 16.5 26.9 0.00 0.00 0.00 100 894.1
20260506161807 60 223 15.6 26.1 0.00 0.00 0.00 100 894.2
20260506161707 60 219 15.6 26.1 0.00 0.00 0.00 100 894.1
20260506161606 60 219 15.6 26.1 0.00 0.00 0.00 100 894.0
20260506161511 60 212 15.6 26.9 0.00 0.00 0.00 100 894.0
20260506161406 60 212 15.6 26.9 0.00 0.00 0.00 100 893.9
20260506161311 60 212 15.6 26.9 0.00 0.00 0.00 100 893.9
20260506161205 60 212 14.8 26.9 0.00 0.00 0.00 100 893.9
20260506161109 60 215 14.8 26.9 0.00 0.00 0.00 100 894.1
20260506161004 60 221 13.9 23.5 0.00 0.00 0.00 100 894.1
20260506160908 60 223 14.8 24.3 0.00 0.00 0.00 100 894.0
20260506160804 60 222 15.6 24.3 0.00 0.00 0.00 100 893.9
20260506160704 60 220 15.6 27.8 0.00 0.00 0.00 100 893.9
20260506160602 60 220 16.5 27.8 0.00 0.00 0.00 100 893.8
20260506160506 60 220 15.6 27.8 0.00 0.00 0.00 100 893.8
20260506160401 60 221 16.5 27.8 0.00 0.00 0.00 100 893.9
20260506160304 60 220 17.4 27.8 0.00 0.00 0.00 100 893.7
20260506160200 60 223 17.4 27.8 0.00 0.00 0.00 100 893.7
20260506160104 60 222 17.4 27.8 0.00 0.00 0.00 100 893.7
20260506155958 60 219 17.4 26.9 0.00 0.00 0.00 100 893.9
20260506155903 60 216 16.5 26.9 0.00 0.00 0.00 100 893.9
20260506155756 61 214 15.6 26.9 0.00 0.00 0.00 100 893.8
20260506155655 61 213 15.6 26.9 0.00 0.00 0.00 100 893.8
20260506155520 61 216 15.6 26.1 0.00 0.00 0.00 100 893.7
20260506155318 61 210 17.4 27.8 0.00 0.00 0.00 100 893.8
20260506155117 61 206 17.4 27.8 0.00 0.00 0.00 100 893.8
20260506155016 61 210 17.4 27.8 0.00 0.00 0.00 100 893.9
20260506154853 61 213 16.5 25.2 0.00 0.00 0.00 100 893.8
20260506154647 61 226 15.6 25.2 0.00 0.00 0.00 100 893.7
20260506154443 61 232 13.0 20.0 0.00 0.00 0.00 100 893.6
20260506154342 61 238 11.3 20.0 0.00 0.00 0.00 100 893.9
20260506154239 61 236 10.4 17.4 0.00 0.00 0.00 100 894.0
20260506154035 62 216 10.4 17.4 0.00 0.00 0.00 100 894.0
20260506153832 62 211 11.3 17.4 0.00 0.00 0.00 100 894.3
20260506153630 62 224 12.2 20.9 0.00 0.00 0.00 100 894.6
20260506153429 61 210 12.2 20.9 0.00 0.00 0.00 100 894.7
20260506153330 61 209 11.3 20.9 0.00 0.00 0.00 100 894.8
20260506153228 62 205 10.4 19.1 0.00 0.00 0.00 100 895.1
20260506153028 61 204 12.2 20.0 0.00 0.00 0.00 100 894.5
20260506152827 61 209 12.2 20.0 0.00 0.00 0.00 100 894.3
20260506152616 62 228 10.4 15.6 0.00 0.00 0.00 100 894.9
20260506152415 61 226 11.3 19.1 0.00 0.00 0.00 100 894.9
20260506152315 61 226 12.2 19.1 0.00 0.00 0.00 100 894.8
20260506152214 60 221 13.9 20.9 0.00 0.00 0.00 100 894.8
20260506152014 60 229 14.8 20.9 0.00 0.00 0.00 100 894.3
20260506151813 60 219 13.0 19.1 0.00 0.00 0.00 100 894.3
20260506151612 61 202 11.3 18.2 0.00 0.00 0.00 100 894.4
20260506151411 60 208 11.3 19.1 0.00 0.00 0.00 100 894.3
20260506151209 61 225 12.2 19.1 0.00 0.00 0.00 100 894.5
20260506151009 61 228 12.2 19.1 0.00 0.00 0.00 100 894.4
20260506150808 61 230 11.3 18.2 0.00 0.00 0.00 100 894.6
20260506150605 61 233 12.2 17.4 0.00 0.00 0.00 100 894.6
20260506150436 61 233 12.2 17.4 0.00 0.00 0.00 100 894.5
20260506150405 61 233 12.2 17.4 0.00 0.00 0.00 100 894.5
20260506150305 61 233 12.2 17.4 0.00 0.00 0.00 100 894.6
20260506150205 61 212 11.3 18.2 0.00 0.00 0.00 100 894.8
20260506150004 61 203 12.2 20.9 0.00 0.00 0.00 100 894.7
20260506145802 61 205 12.2 26.9 0.00 0.00 0.00 100 894.7
20260506145601 61 220 13.0 26.9 0.00 0.00 0.00 100 894.6
20260506145400 61 226 13.9 22.6 0.00 0.00 0.00 100 894.3
20260506145300 61 216 13.9 22.6 0.00 0.00 0.00 100 894.4
20260506145159 61 215 13.9 22.6 0.00 0.00 0.00 100 894.4
20260506144958 61 217 13.9 23.5 0.00 0.00 0.00 100 894.4
20260506144757 61 220 13.9 23.5 0.00 0.00 0.00 100 894.6
20260506144556 61 220 13.9 21.7 0.00 0.00 0.00 100 894.5
20260506144355 61 230 14.8 26.9 0.00 0.00 0.00 100 894.5
20260506144255 61 231 15.6 26.9 0.00 0.00 0.00 100 894.4
20260506144155 61 231 15.6 26.9 0.00 0.00 0.00 100 894.3
20260506143953 62 210 15.6 24.3 0.00 0.00 0.00 100 894.5
20260506143757 61 201 14.8 24.3 0.00 0.00 0.00 100 894.5
20260506143753 61 201 14.8 24.3 0.00 0.00 0.00 100 894.2
20260506143553 62 210 13.9 22.6 0.00 0.00 0.00 100 894.3
20260506143352 62 223 13.9 22.6 0.00 0.00 0.00 100 894.5
20260506143252 62 235 13.9 22.6 0.00 0.00 0.00 100 894.4
20260506143151 62 238 13.0 20.9 0.00 0.00 0.00 100 894.6
20260506142950 62 230 13.0 26.9 0.00 0.00 0.00 100 894.5
20260506142750 62 230 14.8 28.7 0.00 0.00 0.00 100 894.3
20260506142549 62 238 13.9 28.7 0.00 0.00 0.00 100 894.3
20260506142347 62 240 12.2 22.6 0.00 0.00 0.00 100 894.8
20260506142247 62 238 12.2 23.5 0.00 0.00 0.00 100 894.7
20260506142146 62 242 12.2 23.5 0.00 0.00 0.00 100 894.8
20260506141945 62 239 12.2 23.5 0.00 0.00 0.00 100 894.7
20260506141744 62 242 12.2 19.1 0.00 0.00 0.00 100 894.4
20260506141543 62 247 12.2 18.2 0.00 0.00 0.00 100 894.3
20260506141342 62 248 12.2 20.0 0.00 0.00 0.00 100 894.4
20260506141243 62 248 11.3 20.0 0.00 0.00 0.00 100 894.6
20260506141142 62 243 13.0 21.7 0.00 0.00 0.00 100 894.6
20260506140941 62 240 13.9 21.7 0.00 0.00 0.00 100 895.5
20260506140739 62 243 15.6 24.3 0.00 0.00 0.00 100 894.7
20260506140535 61 248 16.5 27.8 0.00 0.00 0.00 100 894.0
20260506140333 62 244 15.6 27.8 0.00 0.00 0.00 100 893.6
20260506140234 62 241 13.0 20.9 0.00 0.00 0.00 100 893.8
20260506140133 62 235 11.3 20.9 0.00 0.00 0.00 100 893.8
20260506135931 62 222 9.6 19.1 0.00 0.00 0.00 100 894.2
20260506135731 62 226 11.3 21.7 0.00 0.00 0.00 100 894.7
20260506135529 62 231 13.9 25.2 0.00 0.00 0.00 100 894.9
20260506135328 62 237 15.6 25.2 0.00 0.00 0.00 100 894.1
20260506135228 63 237 13.9 23.5 0.00 0.00 0.00 100 893.5
20260506135125 63 234 13.0 23.5 0.00 0.00 0.00 100 893.8
20260506134922 63 239 13.9 26.1 0.00 0.00 0.00 100 893.8
20260506134720 63 241 15.6 24.3 0.00 0.00 0.00 100 893.6
20260506134519 64 243 15.6 26.1 0.00 0.00 0.00 100 894.4
20260506134318 64 247 13.9 26.1 0.00 0.00 0.00 100 894.0
20260506134219 64 247 13.0 26.1 0.00 0.00 0.00 100 894.7
20260506134117 65 241 13.9 23.5 0.00 0.00 0.00 100 895.1
20260506133917 64 241 13.9 23.5 0.00 0.00 0.00 100 894.9
20260506133716 64 247 12.2 23.5 0.00 0.00 0.00 100 894.6
20260506133515 63 251 12.2 22.6 0.00 0.00 0.00 100 894.8
20260506133314 63 246 14.8 24.3 0.00 0.00 0.00 100 894.4
20260506133214 62 247 13.9 24.3 0.00 0.00 0.00 100 894.4
20260506133112 64 248 13.0 24.3 0.00 0.00 0.00 100 894.5
20260506132912 64 248 13.0 21.7 0.00 0.00 0.00 100 894.9
20260506132710 63 242 16.5 24.3 0.00 0.00 0.00 100 894.2
20260506132509 63 248 16.5 24.3 0.00 0.00 0.00 100 894.1
20260506132309 63 249 14.8 23.5 0.00 0.00 0.00 100 894.1
20260506132208 63 249 12.2 23.5 0.00 0.00 0.00 100 894.3
20260506132107 64 243 11.3 23.5 0.00 0.00 0.00 100 894.9
20260506131906 64 241 11.3 22.6 0.00 0.00 0.00 100 894.8
20260506131705 63 243 12.2 22.6 0.00 0.00 0.00 100 894.2
20260506131508 63 240 10.4 21.7 0.00 0.00 0.00 100 894.6
20260506131324 64 240 9.6 21.7 0.00 0.00 0.00 100 894.5
20260506131203 64 240 9.6 21.7 0.00 0.00 0.00 100 895.4
20260506131106 64 233 9.6 19.1 0.00 0.00 0.00 100 895.1
20260506130915 64 242 10.4 19.1 0.00 0.00 0.00 100 895.2
20260506130701 63 242 11.3 19.1 0.00 0.00 0.00 100 894.6
20260506130503 63 232 13.9 22.6 0.00 0.00 0.00 100 894.4
20260506130302 63 210 12.2 20.0 0.00 0.00 0.00 100 894.3
20260506130158 63 221 11.3 17.4 0.00 0.00 0.00 100 894.5
20260506125645 63 247 12.2 22.6 0.00 0.00 0.00 100 894.9
20260506125143 63 220 14.8 26.1 0.00 0.00 0.00 100 894.4
20260506124640 63 237 13.0 25.2 0.00 0.00 0.00 100 895.1
20260506124138 63 199 13.0 29.5 0.00 0.00 0.00 100 895.6
20260506123636 62 226 13.9 22.6 0.00 0.00 0.00 100 895.2
20260506123133 61 228 13.9 27.8 0.00 0.00 0.00 100 894.9
20260506122632 62 231 13.0 19.1 0.00 0.00 0.00 100 895.2
20260506122232 61 241 13.0 23.5 0.00 0.00 0.00 100 895.1
20260506122127 61 243 13.0 23.5 0.00 0.00 0.00 100 894.9
20260506122014 62 246 13.9 26.1 0.00 0.00 0.00 100 894.6
20260506121812 61 246 15.6 25.2 0.00 0.00 0.00 100 894.5
20260506121611 62 248 13.0 25.2 0.00 0.00 0.00 100 894.7
20260506121511 62 246 13.0 25.2 0.00 0.00 0.00 100 894.7
20260506121408 62 241 11.3 25.2 0.00 0.00 0.00 100 894.6
20260506121205 62 237 15.6 24.3 0.00 0.00 0.00 100 894.2
20260506121001 62 244 15.6 24.3 0.00 0.00 0.00 100 894.1
20260506120757 62 250 13.9 22.6 0.00 0.00 0.00 100 894.8
20260506120556 62 248 13.9 22.6 0.00 0.00 0.00 100 894.5
20260506120455 62 247 13.9 22.6 0.00 0.00 0.00 100 894.6
20260506120354 62 243 13.9 20.9 0.00 0.00 0.00 100 894.6
20260506120153 62 242 13.0 20.9 0.00 0.00 0.00 100 894.7
20260506115952 62 239 14.8 21.7 0.00 0.00 0.00 100 894.8
20260506115751 62 239 14.8 22.6 0.00 0.00 0.00 100 894.4
20260506115550 62 247 10.4 22.6 0.00 0.00 0.00 100 894.8
20260506115450 62 252 10.4 19.1 0.00 0.00 0.00 100 894.6
20260506115348 62 248 10.4 19.1 0.00 0.00 0.00 100 894.8
20260506115148 62 223 9.6 16.5 0.00 0.00 0.00 100 894.8
20260506114945 62 204 7.0 15.6 0.00 0.00 0.00 100 895.1
20260506114742 62 216 6.1 12.2 0.00 0.00 0.00 100 895.6
20260506114541 62 235 10.4 17.4 0.00 0.00 0.00 100 895.3
20260506114442 62 235 10.4 17.4 0.00 0.00 0.00 100 894.9
20260506114340 62 223 10.4 18.2 0.00 0.00 0.00 100 894.9
20260506114139 62 212 10.4 18.2 0.00 0.00 0.00 100 894.8
20260506113938 62 222 12.2 26.1 0.00 0.00 0.00 100 895.1
20260506113738 63 234 13.9 26.1 0.00 0.00 0.00 100 894.8
20260506113537 62 239 14.8 23.5 0.00 0.00 0.00 100 894.7
20260506113438 62 241 12.2 23.5 0.00 0.00 0.00 100 894.7
20260506113337 62 244 10.4 23.5 0.00 0.00 0.00 100 895.2
20260506113135 62 255 7.8 20.9 0.00 0.00 0.00 100 895.9
20260506112934 62 238 10.4 20.9 0.00 0.00 0.00 100 895.5
20260506112726 61 220 12.2 26.1 0.00 0.00 0.00 100 894.9
20260506112523 61 231 12.2 26.1 0.00 0.00 0.00 100 895.1
20260506112423 62 240 13.0 26.1 0.00 0.00 0.00 100 895.1
20260506112322 60 241 13.9 22.6 0.00 0.00 0.00 100 895.4
20260506112123 61 243 13.9 22.6 0.00 0.00 0.00 100 895.1
20260506111921 60 242 13.9 22.6 0.00 0.00 0.00 100 895.2
20260506111721 61 240 12.2 22.6 0.00 0.00 0.00 100 894.7
20260506111520 61 237 14.8 24.3 0.00 0.00 0.00 100 894.7
20260506111418 61 233 16.5 24.3 0.00 0.00 0.00 100 895.1
20260506111242 61 236 15.6 25.2 0.00 0.00 0.00 100 894.6
20260506110739 61 207 11.3 20.9 0.00 0.00 0.00 100 895.1
20260506110506 61 218 12.2 20.0 0.00 0.00 0.00 100 895.4
20260506110300 61 217 12.2 20.0 0.00 0.00 0.00 100 894.9
20260506105901 60 210 11.3 21.7 0.00 0.00 0.00 100 895.3
20260506105759 60 211 11.3 21.7 0.00 0.00 0.00 100 895.3
20260506105701 60 208 12.2 21.7 0.00 0.00 0.00 100 895.1
20260506105517 60 205 11.3 19.1 0.00 0.00 0.00 100 894.6
20260506105258 60 209 10.4 20.0 0.00 0.00 0.00 100 894.5
20260506105100 61 232 10.4 20.0 0.00 0.00 0.00 100 895.4
20260506104901 61 239 10.4 16.5 0.00 0.00 0.00 100 895.5
20260506104756 61 235 10.4 17.4 0.00 0.00 0.00 100 895.2
20260506104659 61 230 10.4 17.4 0.00 0.00 0.00 100 894.9
20260506104456 61 222 10.4 17.4 0.00 0.00 0.00 100 895.2
20260506104253 60 227 12.2 22.6 0.00 0.00 0.00 100 895.0
20260506104055 60 225 13.9 24.3 0.00 0.00 0.00 100 894.9
20260506103855 60 225 13.9 24.3 0.00 0.00 0.00 100 895.0
20260506103752 61 224 13.9 24.3 0.00 0.00 0.00 100 894.9
20260506103656 60 225 13.9 24.3 0.00 0.00 0.00 100 895.2
20260506103529 60 213 13.0 20.9 0.00 0.00 0.00 100 895.1
20260506103251 61 203 13.0 21.7 0.00 0.00 0.00 100 895.3
20260506103053 60 200 12.2 21.7 0.00 0.00 0.00 100 895.4
20260506102850 60 202 13.0 20.9 0.00 0.00 0.00 100 895.1
20260506102747 60 205 13.9 20.9 0.00 0.00 0.00 100 895.1
20260506102648 60 206 13.0 20.0 0.00 0.00 0.00 100 895.1
20260506102447 60 209 13.0 19.1 0.00 0.00 0.00 100 895.3
20260506102245 60 214 13.9 20.9 0.00 0.00 0.00 100 895.3
20260506102044 60 216 14.8 25.2 0.00 0.00 0.00 100 895.3
20260506101843 60 219 15.6 25.2 0.00 0.00 0.00 100 895.2
20260506101741 59 223 15.6 25.2 0.00 0.00 0.00 100 895.0
20260506101643 59 226 15.6 24.3 0.00 0.00 0.00 100 894.9
20260506101441 59 228 15.6 24.3 0.00 0.00 0.00 100 894.9
20260506101238 59 226 15.6 24.3 0.00 0.00 0.00 100 895.0
20260506100935 60 223 14.8 24.3 0.00 0.00 0.00 100 895.3
20260506100752 59 219 16.5 27.8 0.00 0.00 0.00 100 895.3
20260506100731 58 219 16.5 27.8 0.00 0.00 0.00 100 895.0
20260506100603 58 222 14.8 27.8 0.00 0.00 0.00 100 895.1
20260506100530 58 222 14.8 27.8 0.00 0.00 0.00 100 895.1
20260506100329 60 239 12.2 20.9 0.00 0.00 0.00 100 895.9
20260506100230 59 239 12.2 19.1 0.00 0.00 0.00 100 896.0
20260506100128 59 238 13.0 20.0 0.00 0.00 0.00 100 895.9
20260506095927 58 231 14.8 21.7 0.00 0.00 0.00 100 895.7
20260506095726 58 228 16.5 27.8 0.00 0.00 0.00 100 895.4
20260506095526 58 227 16.5 27.8 0.00 0.00 0.00 100 895.2
20260506095325 58 231 15.6 24.3 0.00 0.00 0.00 100 894.6
20260506095225 58 231 14.8 23.5 0.00 0.00 0.00 100 894.8
20260506095124 58 234 14.8 23.5 0.00 0.00 0.00 100 894.8
20260506094922 58 232 13.9 24.3 0.00 0.00 0.00 100 894.7
20260506094721 58 224 13.9 25.2 0.00 0.00 0.00 100 894.5
20260506094521 58 224 13.9 25.2 0.00 0.00 0.00 100 894.3
20260506094320 58 216 13.9 21.7 0.00 0.00 0.00 100 894.2
20260506094218 58 216 13.9 20.9 0.00 0.00 0.00 100 894.2
20260506093900 58 219 13.9 22.6 0.00 0.00 0.00 100 894.8
20260506093654 59 212 13.0 21.7 0.00 0.00 0.00 100 894.9
20260506093450 59 232 13.0 25.2 0.00 0.00 0.00 100 895.0
20260506093247 58 232 13.0 25.2 0.00 0.00 0.00 100 894.7
20260506093145 58 213 12.2 22.6 0.00 0.00 0.00 100 895.1
20260506093041 59 213 12.2 20.0 0.00 0.00 0.00 100 895.1
20260506092840 58 213 12.2 21.7 0.00 0.00 0.00 100 895.0
20260506092639 58 222 12.2 21.7 0.00 0.00 0.00 100 895.0
20260506092438 58 226 11.3 21.7 0.00 0.00 0.00 100 895.1
20260506092238 58 243 11.3 18.2 0.00 0.00 0.00 100 895.4
20260506092138 57 243 12.2 19.1 0.00 0.00 0.00 100 895.2
20260506092036 57 235 13.0 20.0 0.00 0.00 0.00 100 894.9
20260506091835 57 225 12.2 20.0 0.00 0.00 0.00 100 895.1
20260506091635 57 221 11.3 19.1 0.00 0.00 0.00 100 895.4
20260506091433 57 205 12.2 20.0 0.00 0.00 0.00 100 895.2
20260506091232 57 205 11.3 20.0 0.00 0.00 0.00 100 894.9
20260506091131 57 210 11.3 19.1 0.00 0.00 0.00 100 894.9
20260506091019 57 216 12.2 17.4 0.00 0.00 0.00 100 895.0
20260506090819 57 222 13.0 17.4 0.00 0.00 0.00 100 894.7
20260506090618 56 218 13.9 21.7 0.00 0.00 0.00 100 894.6
20260506090416 56 231 14.8 25.2 0.00 0.00 0.00 100 894.3
20260506090215 56 236 15.6 25.2 0.00 0.00 0.00 100 894.2
20260506090115 57 236 15.6 25.2 0.00 0.00 0.00 100 894.7
20260506090050 57 234 15.6 26.1 0.00 0.00 0.00 100 894.7
20260506090014 57 234 15.6 26.1 0.00 0.00 0.00 100 894.7
20260506085814 57 231 14.8 26.1 0.00 0.00 0.00 100 894.4
20260506085613 57 218 14.8 22.6 0.00 0.00 0.00 100 894.6
20260506085410 56 224 15.6 25.2 0.00 0.00 0.00 100 894.2
20260506085206 57 237 13.9 25.2 0.00 0.00 0.00 100 894.4
20260506085106 57 238 13.0 19.1 0.00 0.00 0.00 100 894.9
20260506085005 57 239 13.9 23.5 0.00 0.00 0.00 100 894.7
20260506084804 56 237 14.8 23.5 0.00 0.00 0.00 100 894.5
20260506084607 57 226 13.9 23.5 0.00 0.00 0.00 100 894.5
20260506084602 57 226 13.9 23.5 0.00 0.00 0.00 100 894.6
20260506084401 56 220 13.0 20.0 0.00 0.00 0.00 100 894.8
20260506084200 57 228 13.9 20.0 0.00 0.00 0.00 100 894.6
20260506084101 57 233 13.9 23.5 0.00 0.00 0.00 100 894.6
20260506084000 56 231 15.6 24.3 0.00 0.00 0.00 100 894.7
20260506083759 56 227 16.5 24.3 0.00 0.00 0.00 100 894.2
20260506083558 56 229 15.6 22.6 0.00 0.00 0.00 100 894.4
20260506083357 56 234 15.6 22.6 0.00 0.00 0.00 100 894.1
20260506083155 55 233 15.6 22.6 0.00 0.00 0.00 100 893.7
20260506083056 55 226 15.6 24.3 0.00 0.00 0.00 100 893.7
20260506082955 56 227 16.5 24.3 0.00 0.00 0.00 100 893.5
20260506082755 55 225 17.4 27.8 0.00 0.00 0.00 100 893.7
20260506082554 55 226 16.5 27.8 0.00 0.00 0.00 100 897.1
20260506082353 54 226 15.6 25.2 0.00 0.00 0.00 100 893.8
20260506082153 54 224 15.6 25.2 0.00 0.00 0.00 100 893.6
20260506082053 54 221 14.8 25.2 0.00 0.00 0.00 100 893.4
20260506081851 55 220 14.8 22.6 0.00 0.00 0.00 100 893.3
20260506081538 54 224 15.6 26.1 0.00 0.00 0.00 100 895.5
20260506081337 54 216 15.6 29.5 0.00 0.00 0.00 100 893.2
20260506081135 54 218 14.8 29.5 0.00 0.00 0.00 100 893.3
20260506081034 54 219 15.6 29.5 0.00 0.00 0.00 100 893.3
20260506080833 54 222 14.8 22.6 0.00 0.00 0.00 100 893.6
20260506080603 54 226 13.9 22.6 0.00 0.00 0.00 100 899.5
20260506080501 54 225 13.9 21.7 0.00 0.00 0.00 100 894.0
20260506080248 54 225 15.6 25.2 0.00 0.00 0.00 100 893.9
20260506080147 54 225 15.6 25.2 0.00 0.00 0.00 100 893.5
20260506073323 53 226 15.6 26.1 0.00 0.00 0.00 100 891.8
20260506073120 52 231 16.5 24.3 0.00 0.00 0.00 100 892.2
20260506073020 52 231 16.5 24.3 0.00 0.00 0.00 100 896.7
20260506072918 53 230 15.6 24.3 0.00 0.00 0.00 100 896.7
20260506072717 53 230 15.6 29.5 0.00 0.00 0.00 100 891.9
20260506072516 53 225 17.4 29.5 0.00 0.00 0.00 100 892.2
20260506072315 52 225 18.2 28.7 0.00 0.00 0.00 100 891.5
20260506072114 52 225 18.2 28.7 0.00 0.00 0.00 100 893.2
20260506072015 52 220 17.4 28.7 0.00 0.00 0.00 100 896.4
20260506071914 52 218 17.4 26.1 0.00 0.00 0.00 100 892.4
20260506071713 52 223 17.4 26.1 0.00 0.00 0.00 100 891.3
20260506071522 52 212 19.1 27.8 0.00 0.00 0.00 100 891.7
20260506071512 52 212 19.1 27.8 0.00 0.00 0.00 100 894.6
20260506071311 52 209 19.1 27.8 0.00 0.00 0.00 100 900.0
20260506071110 52 215 18.2 27.8 0.00 0.00 0.00 100 892.1
20260506071010 52 223 18.2 26.9 0.00 0.00 0.00 100 895.9
20260506070909 52 224 18.2 26.9 0.00 0.00 0.00 100 894.2
20260506070708 52 227 18.2 26.9 0.00 0.00 0.00 100 892.0
20260506070508 51 223 18.2 26.1 0.00 0.00 0.00 100 896.1
20260506070317 52 211 18.2 31.3 0.00 0.00 0.00 100 890.6
20260506070307 51 211 18.2 31.3 0.00 0.00 0.00 100 892.6
20260506070106 51 214 18.2 31.3 0.00 0.00 0.00 100 898.3
20260506062417 49 223 15.6 26.1 0.00 0.00 0.00 100 895.1
20260506062215 49 229 17.4 26.1 0.00 0.00 0.00 100 891.1
20260506061933 49 231 19.1 26.9 0.00 0.00 0.00 100 891.5
20260506061706 49 227 19.1 32.2 0.00 0.00 0.00 100 897.4
20260506061608 49 225 19.1 32.2 0.00 0.00 0.00 100 897.4
20260506061407 49 222 19.1 32.2 0.00 0.00 0.00 100 892.7
20260506061204 49 221 19.1 29.5 0.00 0.00 0.00 100 890.5
20260506061004 48 223 20.0 29.5 0.00 0.00 0.00 100 894.3
20260506060804 48 220 20.0 29.5 0.00 0.00 0.00 100 894.3
20260506060701 48 220 20.0 29.5 0.00 0.00 0.00 100 891.8
20260506060147 48 223 20.0 28.7 0.00 0.00 0.00 100 890.3
20260506051125 47 213 24.3 37.4 0.00 0.00 0.00 100 891.0
20260506050624 47 214 23.5 36.5 0.00 0.00 0.00 100 895.0
20260506050123 48 219 26.1 41.7 0.00 0.00 0.00 100 891.6
20260506045119 47 221 25.2 43.4 0.00 0.00 0.00 100 890.4
20260506044616 47 221 25.2 41.7 0.00 0.00 0.00 100 887.9
20260506044522 47 221 26.1 42.6 0.00 0.00 0.00 100 887.9
20260506044115 47 220 24.3 42.6 0.00 0.00 0.00 100 889.4
20260506043613 47 222 21.7 36.5 0.00 0.00 0.00 100 895.3
20260506043316 47 220 23.5 42.6 0.00 0.00 0.00 100 894.8
20260506043110 47 220 22.6 42.6 0.00 0.00 0.00 100 891.0
20260506042607 47 218 23.5 38.2 0.00 0.00 0.00 100 894.7
20260506042105 47 216 23.5 41.7 0.00 0.00 0.00 100 892.2
20260506041603 47 216 22.6 37.4 0.00 0.00 0.00 100 893.3
20260506041101 47 217 25.2 40.0 0.00 0.00 0.00 100 889.3
20260506040601 47 217 21.7 40.0 0.00 0.00 0.00 100 891.6
20260506040059 48 215 21.7 35.6 0.00 0.00 0.00 100 891.4
20260506035556 48 213 23.5 35.6 0.00 0.00 0.00 100 893.9
20260506035054 48 212 22.6 34.8 0.00 0.00 0.00 100 893.4
20260506034657 48 216 24.3 43.4 0.00 0.00 0.00 100 888.6
20260506034551 48 220 24.3 43.4 0.00 0.00 0.00 100 892.2
20260506034036 48 214 20.9 34.8 0.00 0.00 0.00 100 892.0
20260506033535 48 222 25.2 37.4 0.00 0.00 0.00 100 894.1
20260506033242 48 217 24.3 39.1 0.00 0.00 0.00 100 891.2
20260506033033 48 217 23.5 39.1 0.00 0.00 0.00 100 893.8
20260506032531 48 213 20.9 34.8 0.00 0.00 0.00 100 892.3
20260506032026 48 210 20.9 41.7 0.00 0.00 0.00 100 888.1
20260506031524 48 214 21.7 38.2 0.00 0.00 0.00 100 893.1
20260506031023 49 215 25.2 36.5 0.00 0.00 0.00 100 893.2
20260506030521 49 212 20.9 37.4 0.00 0.00 0.00 100 889.1
20260506030020 49 217 20.9 39.1 0.00 0.00 0.00 100 890.2
20260506025016 49 216 20.0 36.5 0.00 0.00 0.00 100 889.4
20260506024513 49 216 20.9 38.2 0.00 0.00 0.00 100 891.1
20260506024011 49 216 20.9 33.9 0.00 0.00 0.00 100 896.8
20260506023510 49 216 20.0 33.9 0.00 0.00 0.00 100 895.8
20260506023210 50 217 21.7 35.6 0.00 0.00 0.00 100 889.0
20260506023008 49 217 19.1 35.6 0.00 0.00 0.00 100 890.2
20260506022506 49 213 19.1 35.6 0.00 0.00 0.00 100 892.0
20260506022004 50 216 17.4 33.0 0.00 0.00 0.00 100 890.4
20260506021502 50 209 19.1 35.6 0.00 0.00 0.00 100 890.4
20260506021000 50 218 19.1 32.2 0.00 0.00 0.00 100 893.3
20260506020456 50 214 20.9 35.6 0.00 0.00 0.00 100 892.1
20260506015955 50 220 20.9 32.2 0.00 0.00 0.00 100 888.7
20260506015451 50 218 20.9 33.9 0.00 0.00 0.00 100 892.3
20260506014950 50 221 24.3 38.2 0.00 0.00 0.00 100 888.2
20260506014449 51 215 21.7 39.1 0.00 0.00 0.00 100 896.6
20260506013947 51 217 23.5 38.2 0.00 0.00 0.00 100 888.0
20260506013442 51 215 22.6 36.5 0.00 0.00 0.00 100 889.6
20260506012940 51 222 20.9 36.5 0.00 0.00 0.00 100 891.9
20260506012438 51 221 20.0 34.8 0.00 0.00 0.00 100 890.6
20260506011935 51 221 18.2 33.9 0.00 0.00 0.00 100 894.5
20260506011433 51 209 18.2 29.5 0.00 0.00 0.00 100 890.6
20260506010932 51 215 16.5 26.1 0.00 0.00 0.00 100 896.2
20260506010419 51 209 14.8 24.3 0.00 0.00 0.00 100 897.5
20260506005916 51 204 14.8 28.7 0.00 0.00 0.00 100 890.0
20260506005516 51 221 17.4 32.2 0.00 0.00 0.00 100 889.3
20260506005413 51 221 17.4 32.2 0.00 0.00 0.00 100 891.9
20260506004913 52 212 15.6 29.5 0.00 0.00 0.00 100 889.8
20260506004410 52 217 20.0 30.4 0.00 0.00 0.00 100 888.8
20260506003908 52 217 20.0 34.8 0.00 0.00 0.00 100 895.7
20260506003406 52 219 20.0 36.5 0.00 0.00 0.00 100 894.0
20260506002903 52 217 20.9 34.8 0.00 0.00 0.00 100 889.2
20260506002401 52 218 22.6 42.6 0.00 0.00 0.00 100 898.1
20260506001859 53 216 20.0 46.1 0.00 0.00 0.00 100 896.5
20260506001359 53 215 22.6 37.4 0.00 0.00 0.00 100 889.0
20260506000857 53 215 22.6 42.6 0.00 0.00 0.00 100 897.3
20260506000355 53 217 19.1 41.7 0.00 0.00 0.00 100 895.3
20260505235854 53 218 20.0 34.8 0.00 0.00 0.00 100 889.7
20260505235353 53 215 21.7 37.4 0.00 0.00 0.00 100 889.7
20260505234851 54 217 22.6 38.2 0.00 0.00 0.00 100 892.7
20260505234349 54 215 22.6 41.7 0.00 0.00 0.00 100 890.0
20260505233848 54 210 20.9 41.7 0.00 0.00 0.00 100 890.9
20260505233345 54 213 20.0 37.4 0.00 0.00 0.00 100 890.8
20260505233246 54 213 20.0 39.1 0.00 0.00 0.00 100 890.8
20260505233040 54 214 22.6 43.4 0.00 0.00 0.00 100 889.1
20260505232838 54 214 20.9 43.4 0.00 0.00 0.00 100 891.1
20260505232637 55 212 20.9 35.6 0.00 0.00 0.00 100 894.4
20260505232437 55 213 23.5 40.0 0.00 0.00 0.00 100 890.0
20260505232337 55 211 24.3 40.0 0.00 0.00 0.00 100 896.7
20260505232236 55 210 24.3 40.0 0.00 0.00 0.00 100 889.2
20260505232035 55 211 21.7 40.0 0.00 0.00 0.00 100 890.4
20260505231835 55 217 20.9 39.1 0.00 0.00 0.00 100 897.0
20260505231634 55 218 22.6 39.1 0.00 0.00 0.00 100 890.7
20260505231433 55 222 21.7 39.1 0.00 0.00 0.00 100 894.4
20260505231334 55 220 20.9 34.8 0.00 0.00 0.00 100 889.8
20260505231232 55 217 21.7 35.6 0.00 0.00 0.00 100 891.7
20260505231032 55 215 22.6 37.4 0.00 0.00 0.00 100 895.5
20260505230831 55 214 23.5 37.4 0.00 0.00 0.00 100 889.6
20260505230630 55 218 20.9 37.4 0.00 0.00 0.00 100 895.6
20260505230429 55 221 19.1 31.3 0.00 0.00 0.00 100 889.8
20260505230330 55 221 20.0 33.9 0.00 0.00 0.00 100 890.5
20260505230225 55 220 20.9 36.5 0.00 0.00 0.00 100 893.2
20260505230025 55 211 24.3 48.7 0.00 0.00 0.00 100 889.5
20260505225824 56 210 26.1 48.7 0.00 0.00 0.00 100 895.5
20260505225624 55 215 22.6 42.6 0.00 0.00 0.00 100 895.0
20260505225423 56 211 22.6 36.5 0.00 0.00 0.00 100 889.6
20260505225324 56 211 22.6 40.0 0.00 0.00 0.00 100 891.4
20260505225222 55 209 21.7 40.0 0.00 0.00 0.00 100 896.2
20260505225022 55 211 21.7 40.0 0.00 0.00 0.00 100 889.8
20260505224821 56 211 23.5 44.3 0.00 0.00 0.00 100 896.0
20260505224620 55 212 21.7 44.3 0.00 0.00 0.00 100 889.8
20260505224420 55 214 18.2 32.2 0.00 0.00 0.00 100 890.2
20260505224319 55 212 18.2 32.2 0.00 0.00 0.00 100 891.9
20260505224146 55 212 18.2 44.3 0.00 0.00 0.00 100 895.8
20260505224043 55 216 19.1 44.3 0.00 0.00 0.00 100 890.2
20260505223840 55 219 21.7 44.3 0.00 0.00 0.00 100 892.9
20260505223638 55 218 20.0 35.6 0.00 0.00 0.00 100 891.0
20260505223437 55 208 19.1 33.0 0.00 0.00 0.00 100 891.0
20260505223236 55 203 17.4 30.4 0.00 0.00 0.00 100 896.7
20260505223137 55 205 16.5 30.4 0.00 0.00 0.00 100 896.7
20260505223036 55 208 17.4 31.3 0.00 0.00 0.00 100 893.7
20260505222835 55 206 18.2 31.3 0.00 0.00 0.00 100 890.9
20260505222634 55 199 19.1 31.3 0.00 0.00 0.00 100 894.7
20260505222433 55 202 16.5 33.0 0.00 0.00 0.00 100 894.0
20260505222235 55 203 17.4 32.2 0.00 0.00 0.00 100 892.6
20260505222232 55 203 17.4 32.2 0.00 0.00 0.00 100 891.3
20260505222132 55 203 18.2 32.2 0.00 0.00 0.00 100 891.3
20260505222020 55 203 19.1 32.2 0.00 0.00 0.00 100 896.8
20260505221819 55 207 17.4 30.4 0.00 0.00 0.00 100 896.2
20260505221618 55 210 15.6 28.7 0.00 0.00 0.00 100 894.2
20260505221418 55 210 14.8 26.9 0.00 0.00 0.00 100 891.3
20260505221219 55 207 16.5 32.2 0.00 0.00 0.00 100 892.7
20260505221216 55 207 16.5 32.2 0.00 0.00 0.00 100 895.5
20260505221116 55 207 16.5 32.2 0.00 0.00 0.00 100 895.5
20260505220833 55 202 15.6 27.8 0.00 0.00 0.00 100 896.7
20260505220629 55 201 13.9 20.9 0.00 0.00 0.00 100 892.9
20260505220425 55 199 13.9 25.2 0.00 0.00 0.00 100 891.9
20260505220324 55 196 13.9 25.2 0.00 0.00 0.00 100 892.9
20260505220221 55 199 16.5 26.9 0.00 0.00 0.00 100 891.5
20260505220020 56 207 16.5 26.9 0.00 0.00 0.00 100 893.5
20260505215819 56 208 16.5 32.2 0.00 0.00 0.00 100 891.5
20260505215618 56 203 17.4 32.2 0.00 0.00 0.00 100 893.5
20260505215418 56 203 18.2 32.2 0.00 0.00 0.00 100 893.1
20260505215318 56 205 16.5 28.7 0.00 0.00 0.00 100 893.9
20260505215217 56 208 15.6 26.1 0.00 0.00 0.00 100 893.9
20260505215016 56 206 16.5 32.2 0.00 0.00 0.00 100 895.2
20260505214815 56 200 19.1 32.2 0.00 0.00 0.00 100 893.6
20260505214614 56 203 19.1 34.8 0.00 0.00 0.00 100 892.2
20260505214414 56 205 21.7 34.8 0.00 0.00 0.00 100 892.0
20260505214314 56 202 20.9 34.8 0.00 0.00 0.00 100 894.8
20260505214212 56 201 18.2 34.8 0.00 0.00 0.00 100 891.5
20260505214012 56 200 15.6 33.9 0.00 0.00 0.00 100 893.2
20260505213811 56 198 16.5 30.4 0.00 0.00 0.00 100 896.6
20260505213610 56 201 17.4 33.0 0.00 0.00 0.00 100 892.1
20260505213407 56 207 18.2 33.9 0.00 0.00 0.00 100 894.4
20260505213305 56 205 18.2 36.5 0.00 0.00 0.00 100 895.9
20260505213029 56 201 15.6 36.5 0.00 0.00 0.00 100 891.4
20260505212928 56 201 14.8 27.8 0.00 0.00 0.00 100 891.9
20260505212825 56 201 13.9 27.8 0.00 0.00 0.00 100 892.9
20260505212621 56 200 15.6 27.8 0.00 0.00 0.00 100 894.6
20260505212417 56 203 15.6 27.8 0.00 0.00 0.00 100 893.3
20260505212216 55 205 13.9 27.8 0.00 0.00 0.00 100 893.8
20260505212016 55 210 14.8 27.8 0.00 0.00 0.00 100 896.9
20260505211915 55 211 13.9 27.8 0.00 0.00 0.00 100 892.9
20260505211750 56 208 14.8 22.6 0.00 0.00 0.00 100 897.1
20260505211649 56 204 13.9 22.6 0.00 0.00 0.00 100 892.3
20260505211506 56 201 13.9 22.6 0.00 0.00 0.00 100 895.6
20260505211405 56 201 14.8 28.7 0.00 0.00 0.00 100 895.6
20260505211211 56 201 14.8 28.7 0.00 0.00 0.00 100 897.4
20260505211107 56 202 13.9 28.7 0.00 0.00 0.00 100 892.2
20260505210906 56 207 13.0 20.9 0.00 0.00 0.00 100 892.8
20260505210745 56 209 10.4 19.1 0.00 0.00 0.00 100 896.6
20260505210705 56 209 10.4 19.1 0.00 0.00 0.00 100 896.6
20260505210503 56 205 11.3 19.1 0.00 0.00 0.00 100 897.4
20260505210303 56 204 12.2 20.0 0.00 0.00 0.00 100 892.7
20260505210203 56 205 11.3 20.0 0.00 0.00 0.00 100 892.7
20260505210050 56 208 11.3 20.0 0.00 0.00 0.00 100 893.9
20260505205844 56 210 12.2 20.9 0.00 0.00 0.00 100 893.7